Regional Weather Roundup
Issued by NWS

Home | Current Version | Previous Version | Text Only | Print | Product List | Glossary Off
Versions: 1 2 3 4 5 6 7 8 9 10 11 12 13 14 15 16 17 18 19 20 21 22 23 24 25 26 27 28 29 30 31 32 33 34 35 36 37 38 39 40 41 42 43 44 45 46 47 48 49 50

000
ASUS43 KMKX 250621
RWRWI

WISCONSIN REGIONAL WEATHER ROUNDUP
NATIONAL WEATHER SERVICE MILWAUKEE/SULLIVAN WI
1200 AM CST SAT FEB 25 2017

NOTE: "FAIR" INDICATES FEW OR NO CLOUDS BELOW 12,000 FEET WITH NO
SIGNIFICANT WEATHER AND/OR OBSTRUCTIONS TO VISIBILITY.

WIZ001-002-006>008-014>016-023>028-250700-
NORTHWEST WISCONSIN

CITY           SKY/WX    TMP DP  RH WIND       PRES   REMARKS
SUPERIOR ARPT  PTCLDY    17   5  60 N9        29.89F WCI   5
6HR MIN TEMP:  17; 6HR MAX TEMP:  22;

ASHLAND        CLOUDY    19   8  62 N13       29.81F WCI   6
6HR MIN TEMP:  19; 6HR MAX TEMP:  20; 6HR PCP: TRACE;

HAYWARD        MOCLDY    18   5  57 N9G22     29.78F WCI   7
6HR MIN TEMP:  18; 6HR MAX TEMP:  19;

SIREN          CLOUDY    18   5  57 N15G22    29.86S WCI   3
6HR MIN TEMP:  18; 6HR MAX TEMP:  22;

CUMBERLAND     CLOUDY    18   9  68 N17G23    29.79S WCI   2
RICE LAKE      CLOUDY    19   8  63 NW6G18    29.80F WCI  11
6HR MIN TEMP:  19; 6HR MAX TEMP:  20;

CHETEK         MOCLDY    18   8  63 N12G18    29.78F WCI   6
6HR MIN TEMP:  18; 6HR MAX TEMP:  19;

LADYSMITH      CLOUDY    17  13  84 NW12      29.76S FOG     WCI   4
6HR MIN TEMP:  17; 6HR MAX TEMP:  20;

EAU CLAIRE     LGT SNOW  18  12  77 NW6       29.79S WCI  10
6HR MIN TEMP:  17; 6HR MAX TEMP:  21; 6HR PCP:  0.02;

MENOMONIE      PTCLDY    20   8  60 NW15      29.80F WCI   6
6HR MIN TEMP:  19; 6HR MAX TEMP:  22;

NEW RICHMOND   CLOUDY    19   7  58 N18G29    29.85R WCI   4
6HR MIN TEMP:  19; 6HR MAX TEMP:  23;

OSCEOLA        CLOUDY    20   8  58 N16G23    29.90S WCI   6
6HR MIN TEMP:  20; 6HR MAX TEMP:  25;

$$

WIZ003>005-009-010-017-018-250700-
NORTH CENTRAL WISCONSIN

CITY           SKY/WX    TMP DP  RH WIND       PRES   REMARKS
MANITOWISH WTR LGT SNOW  15  12  91 N13       29.66F WCI   0
6HR MIN TEMP:  15; 6HR MAX TEMP:  17;

ARBOR VITAE    LGT SNOW  17  13  86 N16G22      N/A  WCI   1
6HR MIN TEMP:  17; 6HR MAX TEMP:  19;

WOODRUFF       LGT SNOW  17  13  86 N16G22      N/A  WCI   1
6HR MIN TEMP:  17; 6HR MAX TEMP:  19;

RHINELANDER    LGT SNOW  17  12  80 N9        29.63S WCI   6
6HR MIN TEMP:  17; 6HR MAX TEMP:  19; 6HR PCP:  0.05;

EAGLE RIVER    LGT SNOW  16  11  82 N15G22    29.61F WCI   1
6HR MIN TEMP:  16; 6HR MAX TEMP:  17;

LAND O LAKES   LGT SNOW  17  13  86 N13G18    29.63F WCI   3
6HR MIN TEMP:  17; 6HR MAX TEMP:  18;

PHILLIPS       LGT SNOW  15  12  89 NW9       29.68F WCI   3
6HR MIN TEMP:  15; 6HR MAX TEMP:  18; 6HR PCP:  0.01;

TOMAHAWK       LGT SNOW  16  12  86 NW6       29.66F WCI   7
6HR MIN TEMP:  16; 6HR MAX TEMP:  19;

MEDFORD        LGT SNOW  15  11  83 N13       29.67S WCI   2
6HR MIN TEMP:  15; 6HR MAX TEMP:  19;

MERRILL        NOT AVBL
$$

WIZ029-030-035-036-043>047-250700-
CENTRAL WISCONSIN

CITY           SKY/WX    TMP DP  RH WIND       PRES   REMARKS
WAUSAU         LGT SNOW  18  13  80 NW15G22   29.64S WCI   4
6HR MIN TEMP:  18; 6HR MAX TEMP:  21; 6HR PCP:  0.02;

MOSINEE        LGT SNOW  19  16  86 N15G25    29.65F WCI   5
MARSHFIELD     LGT SNOW  17  12  80 N17       29.66S WCI   1
6HR MIN TEMP:  17; 6HR MAX TEMP:  22; 6HR PCP: TRACE;

STEVENS POINT  LGT SNOW  17  15  90 NW12      29.65S WCI   5
6HR MIN TEMP:  17; 6HR MAX TEMP:  22;

WAUPACA        FLURRIES  22  17  79 NW10      29.63F WCI  11
6HR MIN TEMP:  22; 6HR MAX TEMP:  28;

WAUTOMA        LGT SNOW  20  16  84 NW12      29.65F FOG     WCI   8
6HR MIN TEMP:  20; 6HR MAX TEMP:  26; 6HR PCP: TRACE;

WISC RAPIDS    LGT SNOW  19  15  84 N12       29.67S FOG     WCI   7
6HR MIN TEMP:  19; 6HR MAX TEMP:  25; 6HR PCP:  0.01;

CAMP DOUGLAS   LGT SNOW  18  14  86 NW9       29.70S WCI   6
6HR MIN TEMP:  19; 6HR MAX TEMP:  26; 6HR PCP: TRACE;

$$

WIZ011>013-019>022-031-037>040-048>050-250700-
NORTHEAST WISCONSIN

CITY           SKY/WX    TMP DP  RH WIND       PRES   REMARKS
ANTIGO         FLURRIES  17  12  82 N20       29.61S WCI   0
6HR MIN TEMP:  16; 6HR MAX TEMP:  19;

SHAWANO        CLOUDY    23  17  80 CALM      29.61F
6HR MIN TEMP:  23; 6HR MAX TEMP:  27;

OCONTO         CLOUDY    22  18  86 NW9       29.59S WCI  11
6HR MIN TEMP:  22; 6HR MAX TEMP:  25;

STURGEON BAY   CLOUDY    23  21  92 MISG      29.55S
6HR MIN TEMP:  23; 6HR MAX TEMP:  27; 6HR PCP: TRACE;

GREEN BAY      FRZ RAIN  23  22  96 NW14      29.58F FOG     WCI  11
6HR MIN TEMP:  23; 6HR MAX TEMP:  27; 6HR PCP:  0.01;

MANITOWOC      MIX PCPN  24  21  88 NW16      29.56S FOG     WCI  11
6HR MIN TEMP:  24; 6HR MAX TEMP:  28; 6HR PCP: TRACE;

APPLETON       LGT SNOW  21  19  93 NW12      29.57F WCI   9
CLINTONVILLE   FLURRIES  21  16  79 NW6       29.62F WCI  14
OSHKOSH        LGT SNOW  22  19  89 NW14G24   29.60S FOG     WCI   9
6HR MIN TEMP:  22; 6HR MAX TEMP:  26; 6HR PCP: TRACE;

$$

WIZ032>034-041-042-053>061-250700-
SOUTHWEST WISCONSIN

CITY           SKY/WX    TMP DP  RH WIND       PRES   REMARKS
LA CROSSE      LGT SNOW  21  14  74 N16       29.80R WCI   7
6HR MIN TEMP:  21; 6HR MAX TEMP:  26; 6HR PCP:  0.01;

SPARTA         LGT SNOW  19  15  86 NW12G17   29.75S WCI   6
6HR MIN TEMP:  19; 6HR MAX TEMP:  26;

VIROQUA        CLOUDY    18  15  88 N13G18    29.71S WCI   4
6HR MIN TEMP:  18; 6HR MAX TEMP:  25;

BOSCOBEL       LGT SNOW  22  16  78 NW10      29.75R WCI  11
6HR MIN TEMP:  22; 6HR MAX TEMP:  29; 6HR PCP:  0.01;

PRAIRIE DU CHI LGT SNOW  21  16  81 NW13      29.77R WCI   9
6HR MIN TEMP:  21; 6HR MAX TEMP:  29;

PLATTEVILLE    CLOUDY    23  22  96 NW8       29.70R WCI  14
6HR MIN TEMP:  23; 6HR MAX TEMP:  29;

$$

WIZ056-057-062-063-064-067-068-250700-
SOUTH CENTRAL WISCONSIN

CITY           SKY/WX    TMP DP  RH WIND       PRES   REMARKS
REEDSBURG      LGT SNOW  20  18  91 NW12      29.68R WCI   8
6HR MIN TEMP:  20; 6HR MAX TEMP:  26;

BARABOO/DELLS  LGT SNOW  20  18  91 N7        29.66R WCI  11
6HR MIN TEMP:  20; 6HR MAX TEMP:  27;

LONE ROCK      LGT SNOW  23  17  78 NW13G20   29.71R WCI  11
6HR MIN TEMP:  23; 6HR MAX TEMP:  28; 6HR PCP: TRACE;

MINERAL POINT  LGT SNOW  23  23 100 N3        29.68R
MADISON        LGT SNOW  22  18  85 N14G25    29.65R FOG     WCI   9
6HR MIN TEMP:  22; 6HR MAX TEMP:  27; 6HR PCP:  0.01;

MIDDLETON      CLOUDY    25  22  90 N5        29.66R WCI  19
WATERTOWN      FLURRIES  24  23  96 NW13G18   29.62R WCI  12
6HR MIN TEMP:  24; 6HR MAX TEMP:  28;

MONROE         LGT SNOW  25  23  93 NW10G18   29.64R WCI  15
JANESVILLE     LGT SNOW  28  28 100 NW8       29.63R WCI  20
$$

WIZ051-052-058>065-066-070>072-250700-
SOUTHEAST WISCONSIN

CITY           SKY/WX    TMP DP  RH WIND       PRES   REMARKS
MILWAUKEE      FLURRIES  28  23  81 NW13      29.59R WCI  17
6HR MIN TEMP:  28; 6HR MAX TEMP:  34; 6HR PCP:  0.01;

WAUKESHA       LGT SNOW  25  23  93 NW12      29.60R WCI  14
MILWAUKEE/TIMM FLURRIES  27  23  86 NW14      29.59S WCI  15
RACINE         CLOUDY    28  24  85 NW9       29.61R WCI  19
6HR MIN TEMP:  28; 6HR MAX TEMP:  35; 6HR PCP:  0.01;

KENOSHA        CLOUDY    29  24  82 NW9G20    29.60R WCI  20
6HR MIN TEMP:  29; 6HR MAX TEMP:  35; 6HR PCP:  0.01;

FOND DU LAC    LGT SNOW  23  18  81 NW16      29.60F WCI  10
6HR MIN TEMP:  23; 6HR MAX TEMP:  28; 6HR PCP: TRACE;

SHEBOYGAN      CLOUDY    23  20  88 NW15      29.56F FOG     WCI  10
6HR MIN TEMP:  23; 6HR MAX TEMP:  29; 6HR PCP: TRACE;

WEST BEND      CLOUDY    25  25 100 CALM      29.58S FOG
JUNEAU         CLOUDY    22  19  89 NW6       29.62R WCI  14
6HR MIN TEMP:  22; 6HR MAX TEMP:  27;

$$

LSZ147-162-250700-
LAKE SUPERIOR

STATION/POSITION TIME  TEMP    WIND        PRES    WAVE
                       AIR SEA DIR/SP/G            HT/PER
                 (UTC) (F)     (DEG/KT/KT) (MB)    (FT/S)
DEVILS ISLAND    0600   19     340/ 17/ 22 1010.9F
PORT WING        0540   20     340/ 19/ 25 1011.2F
SAXON HARBOR     0530   23     360/ 16/ 22 1008.8F
$$

LMZ867-665-643>646-250700-
LAKE MICHIGAN

STATION/POSITION TIME  TEMP    WIND        PRES    WAVE
                       AIR SEA DIR/SP/G            HT/PER
                 (UTC) (F)     (DEG/KT/KT) (MB)    (FT/S)
NORTHPORT PIER   0540   27     350/  4/  5 1000.3R
SISTER BAY       0535   27        CALM       N/A
KEWAUNEE LAKESHO 0554   24     330/ 13/ 19 1000.2F
SHEBOYGAN LAKESH 0600   25     3



USA.gov is the U.S. government's official web portal to all federal, state and local government web resources and services.